Вернуться в каталог

FENGYUN 1C DEB

АктивенSSO
NORAD 35173·DEBRIS·🇨🇳 China

Запущен May 10, 1999 с Taiyuan Satellite Launch Center

Loading…

Ближайшие Пролёты (ближайшие 24 часа)

TLE

СвежийSource: Space-Track

Эпоха: Sep 11, 2026, 09:39 UTC

1 35173U 99025DND 26254.40258687  .00000852  00000-0  85430-3 0  9991
2 35173  99.7719 321.4830 0486135 269.0630  85.4790 13.38185926694757

Отслеживайте FENGYUN 1C DEB в реальном времени с AllMySat

Download on the App Store